Terminal Aerodrome Forecast
Issued by NWS

Home | Current Version | Previous Version | Text Only | Print | Product List | Glossary On
Versions: 1 2 3 4 5 6 7 8 9 10 11 12 13 14 15 16 17 18 19 20 21 22 23 24 25 26 27 28
484
FTAK31 PANC 250542
TAFAAQ
TAF
PAAQ 250542Z 2506/2606 14017G27KT 6SM -RA SCT020 BKN040 OVC060
     FM250900 16010KT 5SM -RA SCT020 BKN040 OVC060
      TEMPO 2511/2514 VRB06KT 3SM -RA BKN030 OVC050
     FM251500 VRB06KT P6SM -RA SCT020 BKN040 OVC060=

USA.gov is the U.S. government's official web portal to all federal, state and local government web resources and services.